| time (UTC) | temp C | wind direction | speed KPH | gust KPH | rain 1hr cm | rain 24hr cm | rain mn cm | humidity % | barometer mb |
| 20260906195004 | 32 | 290 | 1.6 | 3.2 | 0.00 | 0.08 | 0.08 | 63 | 1013.5 |
| 20260906194504 | 32 | 290 | 1.6 | 3.2 | 0.00 | 0.08 | 0.08 | 65 | 1013.6 |
| 20260906194003 | 31 | 290 | 1.6 | 3.2 | 0.03 | 0.08 | 0.08 | 67 | 1013.7 |
| 20260906193504 | 31 | 290 | 1.6 | 3.2 | 0.08 | 0.08 | 0.08 | 70 | 1013.7 |
| 20260906193004 | 31 | 290 | 1.6 | 3.2 | 0.08 | 0.08 | 0.08 | 71 | 1013.7 |
| 20260906192504 | 31 | 290 | 1.6 | 3.2 | 0.08 | 0.08 | 0.08 | 75 | 1013.7 |
| 20260906192003 | 31 | 290 | 1.6 | 3.2 | 0.08 | 0.08 | 0.08 | 75 | 1013.8 |
| 20260906191504 | 31 | 290 | 1.6 | 6.4 | 0.08 | 0.08 | 0.08 | 75 | 1013.8 |
| 20260906191004 | 32 | 289 | 3.2 | 6.4 | 0.08 | 0.08 | 0.08 | 76 | 1013.8 |
| 20260906190504 | 32 | 286 | 1.6 | 6.4 | 0.08 | 0.08 | 0.08 | 74 | 1014.0 |
| 20260906190004 | 32 | 284 | 1.6 | 6.4 | 0.08 | 0.08 | 0.08 | 75 | 1013.9 |
| 20260906185525 | 32 | 284 | 1.6 | 3.2 | 0.08 | 0.08 | 0.08 | 74 | 1014.1 |
| 20260906185003 | 32 | 284 | 1.6 | 3.2 | 0.08 | 0.08 | 0.08 | 69 | 1014.2 |
| 20260906184525 | 33 | 283 | 1.6 | 6.4 | 0.08 | 0.08 | 0.08 | 71 | 1014.2 |
| 20260906184003 | 33 | 284 | 3.2 | 9.7 | 0.05 | 0.05 | 0.05 | 69 | 1014.4 |
| 20260906183503 | 33 | 293 | 3.2 | 9.7 | 0.00 | 0.00 | 0.00 | 63 | 1014.3 |
| 20260906183004 | 33 | 288 | 3.2 | 9.7 | 0.00 | 0.00 | 0.00 | 60 | 1014.2 |
| 20260906182524 | 33 | 304 | 6.4 | 9.7 | 0.00 | 0.00 | 0.00 | 60 | 1014.2 |
| 20260906182004 | 33 | 319 | 6.4 | 9.7 | 0.00 | 0.00 | 0.00 | 57 | 1014.2 |
| 20260906181524 | 33 | 313 | 6.4 | 11.3 | 0.00 | 0.00 | 0.00 | 57 | 1014.2 |
| 20260906181004 | 33 | 332 | 8.0 | 16.1 | 0.00 | 0.00 | 0.00 | 57 | 1014.3 |
| 20260906180525 | 33 | 338 | 8.0 | 16.1 | 0.00 | 0.00 | 0.00 | 56 | 1014.5 |
| 20260906180024 | 33 | 329 | 8.0 | 17.7 | 0.00 | 0.00 | 0.00 | 60 | 1014.5 |
| 20260906175524 | 33 | 317 | 11.3 | 27.4 | 0.00 | 0.00 | 0.00 | 62 | 1014.6 |
| 20260906175004 | 33 | 312 | 9.7 | 25.7 | 0.00 | 0.00 | 0.00 | 59 | 1014.8 |
| 20260906174503 | 33 | 321 | 8.0 | 25.7 | 0.00 | 0.00 | 0.00 | 64 | 1014.8 |
| 20260906174003 | 32 | 345 | 8.0 | 16.1 | 0.00 | 0.00 | 0.00 | 62 | 1014.8 |
| 20260906173504 | 32 | 5 | 8.0 | 19.3 | 0.00 | 0.00 | 0.00 | 62 | 1014.9 |
| 20260906173003 | 33 | 34 | 8.0 | 19.3 | 0.00 | 0.00 | 0.00 | 62 | 1014.9 |
| 20260906172503 | 33 | 19 | 6.4 | 17.7 | 0.00 | 0.00 | 0.00 | 62 | 1015.0 |
| 20260906172025 | 33 | 222 | 3.2 | 17.7 | 0.00 | 0.00 | 0.00 | 60 | 1015.1 |
| 20260906171524 | 33 | 190 | 3.2 | 8.0 | 0.00 | 0.00 | 0.00 | 60 | 1015.2 |
| 20260906171024 | 32 | 255 | 3.2 | 11.3 | 0.00 | 0.00 | 0.00 | 60 | 1015.3 |
| 20260906170503 | 32 | 308 | 3.2 | 11.3 | 0.00 | 0.00 | 0.00 | 61 | 1015.4 |
| 20260906170003 | 32 | 254 | 3.2 | 9.7 | 0.00 | 0.00 | 0.00 | 62 | 1015.4 |
| 20260906165503 | 32 | 193 | 3.2 | 12.9 | 0.00 | 0.00 | 0.00 | 64 | 1015.5 |
| 20260906165003 | 32 | 195 | 3.2 | 12.9 | 0.00 | 0.00 | 0.00 | 65 | 1015.4 |
| 20260906164503 | 32 | 177 | 3.2 | 9.7 | 0.00 | 0.00 | 0.00 | 64 | 1015.4 |
| 20260906164004 | 32 | 151 | 3.2 | 9.7 | 0.00 | 0.00 | 0.00 | 64 | 1015.4 |
| 20260906163503 | 32 | 360 | 1.6 | 8.0 | 0.00 | 0.00 | 0.00 | 64 | 1015.5 |
| 20260906163003 | 31 | 291 | 3.2 | 8.0 | 0.00 | 0.00 | 0.00 | 65 | 1015.5 |
| 20260906162525 | 31 | 290 | 6.4 | 11.3 | 0.00 | 0.00 | 0.00 | 66 | 1015.5 |
| 20260906162003 | 31 | 337 | 6.4 | 11.3 | 0.00 | 0.00 | 0.00 | 68 | 1015.5 |
| 20260906161503 | 31 | 20 | 6.4 | 12.9 | 0.00 | 0.00 | 0.00 | 69 | 1015.5 |
| 20260906161003 | 31 | 32 | 6.4 | 12.9 | 0.00 | 0.00 | 0.00 | 70 | 1015.6 |
| 20260906160503 | 31 | 22 | 3.2 | 11.3 | 0.00 | 0.00 | 0.00 | 70 | 1015.6 |
| 20260906160004 | 31 | 93 | 3.2 | 9.7 | 0.00 | 0.00 | 0.00 | 71 | 1015.6 |
| 20260906155524 | 31 | 134 | 3.2 | 9.7 | 0.00 | 0.00 | 0.00 | 70 | 1015.7 |
| 20260906155024 | 31 | 126 | 1.6 | 9.7 | 0.00 | 0.00 | 0.00 | 71 | 1015.6 |
| 20260906154525 | 31 | 115 | 3.2 | 16.1 | 0.00 | 0.00 | 0.00 | 71 | 1015.7 |
| 20260906154024 | 30 | 109 | 6.4 | 16.1 | 0.00 | 0.00 | 0.00 | 72 | 1015.7 |
| 20260906153503 | 30 | 114 | 6.4 | 12.9 | 0.00 | 0.00 | 0.00 | 73 | 1015.7 |
| 20260906153003 | 30 | 123 | 6.4 | 12.9 | 0.00 | 0.00 | 0.00 | 73 | 1015.6 |
| 20260906152503 | 30 | 125 | 6.4 | 12.9 | 0.00 | 0.00 | 0.00 | 74 | 1015.5 |
| 20260906152003 | 30 | 118 | 8.0 | 17.7 | 0.00 | 0.00 | 0.00 | 75 | 1015.5 |
| 20260906151504 | 30 | 130 | 8.0 | 17.7 | 0.00 | 0.00 | 0.00 | 76 | 1015.5 |
| 20260906151003 | 29 | 172 | 8.0 | 16.1 | 0.00 | 0.00 | 0.00 | 76 | 1015.4 |
| 20260906150503 | 29 | 188 | 8.0 | 16.1 | 0.00 | 0.00 | 0.00 | 79 | 1015.4 |
| 20260906150003 | 28 | 175 | 8.0 | 19.3 | 0.00 | 0.00 | 0.00 | 79 | 1015.4 |
| 20260906145503 | 28 | 157 | 8.0 | 19.3 | 0.00 | 0.00 | 0.00 | 80 | 1015.3 |
| 20260906145004 | 28 | 140 | 8.0 | 17.7 | 0.00 | 0.00 | 0.00 | 82 | 1015.3 |
| 20260906144524 | 28 | 147 | 6.4 | 16.1 | 0.00 | 0.00 | 0.00 | 83 | 1015.3 |
| 20260906144003 | 27 | 165 | 8.0 | 12.9 | 0.00 | 0.00 | 0.00 | 83 | 1015.3 |
| 20260906143503 | 27 | 154 | 8.0 | 12.9 | 0.00 | 0.00 | 0.00 | 84 | 1015.3 |
| 20260906143003 | 27 | 142 | 6.4 | 12.9 | 0.00 | 0.00 | 0.00 | 84 | 1015.3 |
| 20260906142503 | 27 | 152 | 6.4 | 12.9 | 0.00 | 0.00 | 0.00 | 84 | 1015.3 |
| 20260906142003 | 27 | 162 | 6.4 | 11.3 | 0.00 | 0.00 | 0.00 | 85 | 1015.2 |
| 20260906141503 | 27 | 157 | 6.4 | 11.3 | 0.00 | 0.00 | 0.00 | 85 | 1015.1 |
| 20260906141024 | 27 | 141 | 6.4 | 9.7 | 0.00 | 0.00 | 0.00 | 86 | 1015.1 |
| 20260906140503 | 27 | 141 | 3.2 | 9.7 | 0.00 | 0.00 | 0.00 | 86 | 1015.2 |
| 20260906140003 | 27 | 159 | 3.2 | 9.7 | 0.00 | 0.00 | 0.00 | 86 | 1015.2 |
| 20260906135524 | 27 | 163 | 3.2 | 9.7 | 0.00 | 0.00 | 0.00 | 87 | 1015.2 |
| 20260906135003 | 26 | 165 | 6.4 | 12.9 | 0.00 | 0.00 | 0.00 | 87 | 1015.1 |
| 20260906134503 | 26 | 176 | 8.0 | 12.9 | 0.00 | 0.00 | 0.00 | 88 | 1015.1 |
| 20260906134003 | 26 | 184 | 8.0 | 12.9 | 0.00 | 0.00 | 0.00 | 88 | 1015.0 |
| 20260906133524 | 26 | 173 | 6.4 | 12.9 | 0.00 | 0.00 | 0.00 | 88 | 1015.1 |
| 20260906133003 | 26 | 155 | 6.4 | 12.9 | 0.00 | 0.00 | 0.00 | 89 | 1015.0 |
| 20260906132503 | 26 | 152 | 3.2 | 8.0 | 0.00 | 0.00 | 0.00 | 89 | 1015.0 |
| 20260906132003 | 26 | 153 | 3.2 | 11.3 | 0.00 | 0.00 | 0.00 | 89 | 1014.9 |
| 20260906131503 | 25 | 154 | 6.4 | 11.3 | 0.00 | 0.00 | 0.00 | 89 | 1015.0 |
| 20260906131003 | 25 | 147 | 6.4 | 11.3 | 0.00 | 0.00 | 0.00 | 88 | 1014.8 |
| 20260906130503 | 25 | 134 | 3.2 | 9.7 | 0.00 | 0.00 | 0.00 | 88 | 1014.6 |
| 20260906130004 | 25 | 155 | 3.2 | 9.7 | 0.00 | 0.00 | 0.00 | 87 | 1014.6 |
| 20260906125525 | 25 | 176 | 1.6 | 8.0 | 0.00 | 0.00 | 0.00 | 85 | 1014.5 |
| 20260906125025 | 25 | 177 | 1.6 | 8.0 | 0.00 | 0.00 | 0.00 | 84 | 1014.5 |
| 20260906124504 | 25 | 177 | 0.0 | 1.6 | 0.00 | 0.00 | 0.00 | 84 | 1014.3 |
| 20260906124004 | 25 | 0 | 0.0 | 0.0 | 0.00 | 0.00 | 0.00 | 84 | 1014.2 |
| 20260906123504 | 25 | 0 | 0.0 | 0.0 | 0.00 | 0.00 | 0.00 | 84 | 1014.2 |
| 20260906123004 | 25 | 0 | 0.0 | 0.0 | 0.00 | 0.00 | 0.00 | 84 | 1014.0 |
| 20260906122504 | 25 | 0 | 0.0 | 0.0 | 0.00 | 0.00 | 0.00 | 83 | 1014.0 |
| 20260906122004 | 25 | 177 | 0.0 | 1.6 | 0.00 | 0.00 | 0.00 | 83 | 1013.9 |
| 20260906121504 | 25 | 177 | 0.0 | 1.6 | 0.00 | 0.00 | 0.00 | 83 | 1013.9 |
| 20260906121025 | 25 | 177 | 0.0 | 1.6 | 0.00 | 0.00 | 0.00 | 83 | 1013.8 |
| 20260906120504 | 25 | 177 | 0.0 | 1.6 | 0.00 | 0.00 | 0.00 | 83 | 1013.7 |
| 20260906120004 | 25 | 177 | 0.0 | 1.6 | 0.00 | 0.00 | 0.00 | 82 | 1013.6 |
| 20260906115504 | 25 | 177 | 0.0 | 1.6 | 0.00 | 0.00 | 0.00 | 83 | 1013.6 |
| 20260906115004 | 25 | 177 | 0.0 | 1.6 | 0.00 | 0.00 | 0.00 | 83 | 1013.6 |
| 20260906114504 | 25 | 177 | 0.0 | 1.6 | 0.00 | 0.00 | 0.00 | 82 | 1013.5 |
| 20260906114004 | 25 | 0 | 0.0 | 0.0 | 0.00 | 0.00 | 0.00 | 82 | 1013.4 |
| 20260906113504 | 25 | 0 | 0.0 | 0.0 | 0.00 | 0.00 | 0.00 | 82 | 1013.3 |
| 20260906113004 | 25 | 177 | 0.0 | 1.6 | 0.00 | 0.00 | 0.00 | 82 | 1013.1 |
| 20260906112504 | 25 | 177 | 0.0 | 1.6 | 0.00 | 0.00 | 0.00 | 82 | 1013.1 |
| 20260906112004 | 25 | 0 | 0.0 | 0.0 | 0.00 | 0.00 | 0.00 | 82 | 1013.0 |
| 20260906111504 | 25 | 177 | 0.0 | 1.6 | 0.00 | 0.00 | 0.00 | 82 | 1012.9 |
| 20260906111025 | 25 | 177 | 0.0 | 1.6 | 0.00 | 0.00 | 0.00 | 82 | 1012.9 |
| 20260906110504 | 25 | 177 | 0.0 | 3.2 | 0.00 | 0.00 | 0.00 | 82 | 1012.8 |
| 20260906110004 | 26 | 177 | 0.0 | 3.2 | 0.00 | 0.00 | 0.00 | 82 | 1012.8 |
| 20260906105504 | 26 | 177 | 0.0 | 1.6 | 0.00 | 0.00 | 0.00 | 82 | 1012.7 |
| 20260906105025 | 26 | 177 | 0.0 | 1.6 | 0.00 | 0.00 | 0.00 | 82 | 1012.7 |
| 20260906104504 | 26 | 0 | 0.0 | 0.0 | 0.00 | 0.00 | 0.00 | 82 | 1012.5 |
| 20260906104004 | 26 | 0 | 0.0 | 0.0 | 0.00 | 0.00 | 0.00 | 82 | 1012.4 |
| 20260906103524 | 26 | 0 | 0.0 | 0.0 | 0.00 | 0.00 | 0.00 | 82 | 1012.5 |
| 20260906103004 | 26 | 0 | 0.0 | 0.0 | 0.00 | 0.00 | 0.00 | 82 | 1012.5 |
| 20260906102504 | 26 | 0 | 0.0 | 0.0 | 0.00 | 0.00 | 0.00 | 81 | 1012.5 |
| 20260906102004 | 26 | 0 | 0.0 | 0.0 | 0.00 | 0.00 | 0.00 | 81 | 1012.5 |
| 20260906101504 | 26 | 177 | 0.0 | 1.6 | 0.00 | 0.00 | 0.00 | 81 | 1012.5 |
| 20260906101025 | 26 | 177 | 1.6 | 3.2 | 0.00 | 0.00 | 0.00 | 81 | 1012.5 |
| 20260906100503 | 26 | 177 | 3.2 | 6.4 | 0.00 | 0.00 | 0.00 | 81 | 1012.5 |
| 20260906100004 | 26 | 177 | 3.2 | 6.4 | 0.00 | 0.00 | 0.00 | 81 | 1012.6 |
| 20260906095504 | 26 | 177 | 1.6 | 6.4 | 0.00 | 0.00 | 0.00 | 80 | 1012.7 |
| 20260906095004 | 26 | 177 | 1.6 | 3.2 | 0.00 | 0.00 | 0.00 | 80 | 1012.7 |
| 20260906094504 | 26 | 177 | 1.6 | 3.2 | 0.00 | 0.00 | 0.00 | 80 | 1012.7 |
| 20260906094004 | 26 | 177 | 1.6 | 3.2 | 0.00 | 0.00 | 0.00 | 80 | 1012.8 |
| 20260906093504 | 26 | 177 | 1.6 | 3.2 | 0.00 | 0.00 | 0.00 | 80 | 1012.8 |
| 20260906093004 | 26 | 177 | 1.6 | 3.2 | 0.00 | 0.00 | 0.00 | 80 | 1012.8 |
| 20260906092504 | 26 | 177 | 1.6 | 3.2 | 0.00 | 0.00 | 0.00 | 80 | 1012.9 |
| 20260906092004 | 26 | 177 | 1.6 | 3.2 | 0.00 | 0.00 | 0.00 | 79 | 1012.8 |
| 20260906091504 | 26 | 177 | 1.6 | 3.2 | 0.00 | 0.00 | 0.00 | 79 | 1012.9 |
| 20260906091004 | 26 | 177 | 1.6 | 3.2 | 0.00 | 0.00 | 0.00 | 79 | 1012.7 |
| 20260906090504 | 26 | 177 | 1.6 | 3.2 | 0.00 | 0.00 | 0.00 | 79 | 1012.6 |
| 20260906090004 | 26 | 177 | 1.6 | 3.2 | 0.00 | 0.00 | 0.00 | 79 | 1012.7 |
| 20260906085504 | 26 | 177 | 1.6 | 3.2 | 0.00 | 0.00 | 0.00 | 78 | 1012.7 |
| 20260906085004 | 26 | 177 | 1.6 | 3.2 | 0.00 | 0.00 | 0.00 | 78 | 1012.6 |
| 20260906084525 | 27 | 177 | 1.6 | 3.2 | 0.00 | 0.00 | 0.00 | 78 | 1012.6 |
| 20260906084025 | 27 | 177 | 1.6 | 6.4 | 0.00 | 0.00 | 0.00 | 78 | 1012.6 |
| 20260906083504 | 27 | 177 | 3.2 | 6.4 | 0.00 | 0.00 | 0.00 | 78 | 1012.6 |
| 20260906083004 | 27 | 177 | 3.2 | 6.4 | 0.00 | 0.00 | 0.00 | 78 | 1012.6 |
| 20260906082504 | 27 | 177 | 1.6 | 6.4 | 0.00 | 0.00 | 0.00 | 78 | 1012.7 |
| 20260906082004 | 27 | 177 | 1.6 | 8.0 | 0.00 | 0.00 | 0.00 | 78 | 1012.8 |
| 20260906081504 | 27 | 177 | 3.2 | 9.7 | 0.00 | 0.00 | 0.00 | 78 | 1012.8 |
| 20260906081025 | 27 | 179 | 3.2 | 9.7 | 0.00 | 0.00 | 0.00 | 77 | 1012.8 |
| 20260906080504 | 27 | 182 | 3.2 | 8.0 | 0.00 | 0.00 | 0.00 | 77 | 1012.9 |
| 20260906080004 | 27 | 180 | 3.2 | 9.7 | 0.00 | 0.00 | 0.00 | 77 | 1012.9 |
| 20260906075503 | 27 | 177 | 3.2 | 9.7 | 0.00 | 0.00 | 0.00 | 77 | 1013.0 |
| 20260906075004 | 27 | 176 | 3.2 | 8.0 | 0.00 | 0.00 | 0.00 | 77 | 1013.1 |
| 20260906074504 | 27 | 178 | 6.4 | 9.7 | 0.00 | 0.00 | 0.00 | 77 | 1013.1 |
| 20260906074025 | 27 | 184 | 6.4 | 11.3 | 0.00 | 0.00 | 0.00 | 77 | 1013.2 |
| 20260906073504 | 27 | 189 | 6.4 | 11.3 | 0.00 | 0.00 | 0.00 | 76 | 1013.3 |
| 20260906073004 | 27 | 192 | 6.4 | 11.3 | 0.00 | 0.00 | 0.00 | 76 | 1013.3 |
| 20260906072503 | 27 | 187 | 6.4 | 11.3 | 0.00 | 0.00 | 0.00 | 76 | 1013.3 |
| 20260906072004 | 28 | 172 | 6.4 | 9.7 | 0.00 | 0.00 | 0.00 | 75 | 1013.3 |
| 20260906071504 | 28 | 167 | 6.4 | 9.7 | 0.00 | 0.00 | 0.00 | 75 | 1013.4 |
| 20260906071003 | 28 | 170 | 6.4 | 9.7 | 0.00 | 0.00 | 0.00 | 75 | 1013.5 |
| 20260906070504 | 28 | 172 | 6.4 | 9.7 | 0.00 | 0.00 | 0.00 | 75 | 1013.5 |
| 20260906070004 | 28 | 168 | 6.4 | 11.3 | 0.00 | 0.00 | 0.00 | 75 | 1013.5 |
| 20260906065504 | 28 | 169 | 6.4 | 12.9 | 0.00 | 0.00 | 0.00 | 75 | 1013.6 |
| 20260906065003 | 28 | 173 | 8.0 | 16.1 | 0.00 | 0.00 | 0.00 | 75 | 1013.7 |
| 20260906064524 | 28 | 174 | 9.7 | 16.1 | 0.00 | 0.00 | 0.00 | 75 | 1013.6 |
| 20260906064025 | 28 | 174 | 8.0 | 16.1 | 0.00 | 0.00 | 0.00 | 74 | 1013.7 |
| 20260906063503 | 28 | 173 | 8.0 | 12.9 | 0.00 | 0.00 | 0.00 | 74 | 1013.7 |
| 20260906063003 | 28 | 176 | 8.0 | 12.9 | 0.00 | 0.00 | 0.00 | 74 | 1013.9 |
| 20260906062525 | 28 | 182 | 8.0 | 12.9 | 0.00 | 0.00 | 0.00 | 74 | 1013.9 |
| 20260906062003 | 28 | 175 | 8.0 | 17.7 | 0.00 | 0.00 | 0.00 | 73 | 1013.9 |
| 20260906061503 | 28 | 170 | 8.0 | 17.7 | 0.00 | 0.00 | 0.00 | 73 | 1013.9 |
| 20260906061025 | 28 | 173 | 8.0 | 17.7 | 0.00 | 0.00 | 0.00 | 73 | 1014.0 |
| 20260906060525 | 28 | 170 | 8.0 | 17.7 | 0.00 | 0.00 | 0.00 | 73 | 1013.9 |
| 20260906060004 | 28 | 169 | 8.0 | 16.1 | 0.00 | 0.00 | 0.00 | 73 | 1014.0 |
| 20260906055503 | 28 | 165 | 8.0 | 19.3 | 0.00 | 0.00 | 0.00 | 72 | 1013.9 |
| 20260906055004 | 28 | 168 | 8.0 | 19.3 | 0.00 | 0.00 | 0.00 | 72 | 1013.9 |
| 20260906054503 | 28 | 168 | 6.4 | 16.1 | 0.00 | 0.00 | 0.00 | 72 | 1013.9 |
| 20260906054024 | 28 | 158 | 6.4 | 12.9 | 0.00 | 0.00 | 0.00 | 72 | 1013.8 |
| 20260906053503 | 28 | 168 | 8.0 | 16.1 | 0.00 | 0.00 | 0.00 | 72 | 1013.8 |
| 20260906053003 | 29 | 177 | 8.0 | 16.1 | 0.00 | 0.00 | 0.00 | 71 | 1013.8 |
| 20260906052503 | 29 | 173 | 6.4 | 12.9 | 0.00 | 0.00 | 0.00 | 71 | 1013.8 |
| 20260906052004 | 29 | 175 | 8.0 | 16.1 | 0.00 | 0.00 | 0.00 | 71 | 1013.9 |
| 20260906051503 | 29 | 172 | 9.7 | 19.3 | 0.00 | 0.00 | 0.00 | 71 | 1013.8 |
| 20260906051003 | 29 | 167 | 9.7 | 19.3 | 0.00 | 0.00 | 0.00 | 70 | 1013.9 |
| 20260906050503 | 29 | 166 | 8.0 | 16.1 | 0.00 | 0.00 | 0.00 | 70 | 1013.9 |
| 20260906050004 | 29 | 162 | 8.0 | 16.1 | 0.00 | 0.00 | 0.00 | 70 | 1013.9 |
| 20260906045503 | 29 | 161 | 8.0 | 12.9 | 0.00 | 0.00 | 0.00 | 70 | 1013.9 |
| 20260906045003 | 30 | 163 | 9.7 | 16.1 | 0.00 | 0.00 | 0.00 | 69 | 1013.9 |
| 20260906044504 | 30 | 161 | 8.0 | 17.7 | 0.00 | 0.00 | 0.00 | 69 | 1013.9 |
| 20260906044003 | 30 | 158 | 8.0 | 17.7 | 0.00 | 0.00 | 0.00 | 69 | 1013.9 |
| 20260906043503 | 30 | 154 | 8.0 | 16.1 | 0.00 | 0.00 | 0.00 | 68 | 1014.0 |
| 20260906043003 | 30 | 152 | 8.0 | 16.1 | 0.00 | 0.00 | 0.00 | 69 | 1014.0 |
| 20260906042503 | 30 | 162 | 8.0 | 20.9 | 0.00 | 0.00 | 0.00 | 68 | 1013.9 |
| 20260906042003 | 30 | 159 | 9.7 | 20.9 | 0.00 | 0.00 | 0.00 | 68 | 1013.8 |
| 20260906041503 | 30 | 148 | 8.0 | 17.7 | 0.00 | 0.00 | 0.00 | 67 | 1013.9 |
| 20260906041024 | 30 | 140 | 8.0 | 17.7 | 0.00 | 0.00 | 0.00 | 67 | 1013.9 |
| 20260906040504 | 30 | 136 | 8.0 | 19.3 | 0.00 | 0.00 | 0.00 | 66 | 1013.9 |
| 20260906040003 | 30 | 135 | 8.0 | 17.7 | 0.00 | 0.00 | 0.00 | 66 | 1013.8 |
| 20260906035503 | 30 | 129 | 9.7 | 20.9 | 0.00 | 0.00 | 0.00 | 66 | 1013.8 |
| 20260906035024 | 30 | 127 | 9.7 | 20.9 | 0.00 | 0.00 | 0.00 | 65 | 1013.8 |
| 20260906034504 | 31 | 128 | 9.7 | 20.9 | 0.00 | 0.00 | 0.00 | 65 | 1013.9 |
| 20260906034003 | 31 | 132 | 11.3 | 20.9 | 0.00 | 0.00 | 0.00 | 65 | 1013.9 |
| 20260906033524 | 31 | 135 | 11.3 | 22.5 | 0.00 | 0.00 | 0.00 | 64 | 1013.8 |
| 20260906033003 | 31 | 128 | 9.7 | 22.5 | 0.00 | 0.00 | 0.00 | 64 | 1013.7 |
| 20260906032524 | 31 | 118 | 9.7 | 25.7 | 0.00 | 0.00 | 0.00 | 63 | 1013.6 |
| 20260906032003 | 31 | 120 | 9.7 | 25.7 | 0.00 | 0.00 | 0.00 | 63 | 1013.6 |
| 20260906031503 | 31 | 122 | 9.7 | 19.3 | 0.00 | 0.00 | 0.00 | 62 | 1013.5 |
| 20260906031003 | 31 | 118 | 9.7 | 19.3 | 0.00 | 0.00 | 0.00 | 61 | 1013.4 |
| 20260906030503 | 31 | 122 | 9.7 | 27.4 | 0.00 | 0.00 | 0.00 | 60 | 1013.2 |
| 20260906030003 | 31 | 122 | 11.3 | 27.4 | 0.00 | 0.00 | 0.00 | 60 | 1013.2 |
| 20260906025503 | 32 | 123 | 11.3 | 27.4 | 0.00 | 0.00 | 0.00 | 59 | 1013.1 |
| 20260906025003 | 32 | 129 | 11.3 | 29.0 | 0.00 | 0.00 | 0.00 | 58 | 1012.9 |
| 20260906024503 | 32 | 132 | 9.7 | 29.0 | 0.00 | 0.00 | 0.00 | 57 | 1012.8 |
| 20260906024003 | 32 | 132 | 8.0 | 17.7 | 0.00 | 0.00 | 0.00 | 56 | 1012.7 |
| 20260906023503 | 32 | 123 | 8.0 | 17.7 | 0.00 | 0.00 | 0.00 | 56 | 1012.7 |
| 20260906023003 | 32 | 124 | 9.7 | 17.7 | 0.00 | 0.00 | 0.00 | 56 | 1012.3 |
| 20260906022503 | 32 | 130 | 9.7 | 20.9 | 0.00 | 0.00 | 0.00 | 55 | 1012.2 |
| 20260906022003 | 32 | 131 | 9.7 | 20.9 | 0.00 | 0.00 | 0.00 | 55 | 1012.1 |
| 20260906021503 | 32 | 129 | 11.3 | 29.0 | 0.00 | 0.00 | 0.00 | 55 | 1012.0 |
| 20260906021003 | 32 | 130 | 9.7 | 29.0 | 0.00 | 0.00 | 0.00 | 54 | 1011.9 |
| 20260906020503 | 32 | 129 | 6.4 | 19.3 | 0.00 | 0.00 | 0.00 | 54 | 1011.8 |
| 20260906020024 | 33 | 119 | 6.4 | 11.3 | 0.00 | 0.00 | 0.00 | 53 | 1011.8 |
| 20260906015524 | 33 | 117 | 6.4 | 12.9 | 0.00 | 0.00 | 0.00 | 52 | 1011.7 |
| 20260906015004 | 33 | 115 | 3.2 | 12.9 | 0.00 | 0.00 | 0.00 | 52 | 1011.7 |
| 20260906014503 | 33 | 110 | 6.4 | 16.1 | 0.00 | 0.00 | 0.00 | 52 | 1011.7 |
| 20260906014003 | 33 | 112 | 8.0 | 16.1 | 0.00 | 0.00 | 0.00 | 52 | 1011.7 |
| 20260906013503 | 33 | 106 | 6.4 | 17.7 | 0.00 | 0.00 | 0.00 | 51 | 1011.5 |
| 20260906013003 | 33 | 95 | 6.4 | 17.7 | 0.00 | 0.00 | 0.00 | 51 | 1011.5 |
| 20260906012503 | 33 | 84 | 6.4 | 12.9 | 0.00 | 0.00 | 0.00 | 51 | 1011.5 |
| 20260906012003 | 34 | 83 | 8.0 | 16.1 | 0.00 | 0.00 | 0.00 | 50 | 1011.4 |
| 20260906011503 | 34 | 92 | 9.7 | 17.7 | 0.00 | 0.00 | 0.00 | 50 | 1011.4 |
| 20260906011024 | 34 | 97 | 9.7 | 22.5 | 0.00 | 0.00 | 0.00 | 49 | 1011.4 |
| 20260906010503 | 34 | 106 | 12.9 | 29.0 | 0.00 | 0.00 | 0.00 | 48 | 1011.4 |
| 20260906010004 | 35 | 113 | 11.3 | 29.0 | 0.00 | 0.00 | 0.00 | 47 | 1011.4 |
| 20260906005504 | 35 | 114 | 9.7 | 19.3 | 0.00 | 0.00 | 0.00 | 46 | 1011.4 |
| 20260906005004 | 35 | 109 | 11.3 | 25.7 | 0.00 | 0.00 | 0.00 | 45 | 1011.3 |
| 20260906004504 | 35 | 106 | 11.3 | 29.0 | 0.00 | 0.00 | 0.00 | 45 | 1011.2 |
| 20260906004004 | 35 | 108 | 12.9 | 29.0 | 0.00 | 0.00 | 0.00 | 44 | 1011.2 |
| 20260906003504 | 36 | 107 | 11.3 | 27.4 | 0.00 | 0.00 | 0.00 | 43 | 1011.3 |
| 20260906003025 | 36 | 109 | 11.3 | 30.6 | 0.00 | 0.00 | 0.00 | 43 | 1011.3 |
| 20260906002504 | 36 | 108 | 12.9 | 30.6 | 0.00 | 0.00 | 0.00 | 42 | 1011.1 |
| 20260906002004 | 36 | 102 | 11.3 | 29.0 | 0.00 | 0.00 | 0.00 | 41 | 1011.0 |
| 20260906001504 | 36 | 87 | 8.0 | 29.0 | 0.00 | 0.00 | 0.00 | 39 | 1011.1 |
| 20260906001025 | 37 | 58 | 6.4 | 19.3 | 0.00 | 0.00 | 0.00 | 39 | 1011.0 |
| 20260906000504 | 37 | 70 | 8.0 | 17.7 | 0.00 | 0.00 | 0.00 | 38 | 1010.9 |
| 20260906000004 | 37 | 93 | 8.0 | 17.7 | 0.00 | 0.00 | 0.00 | 38 | 1011.0 |
| 20260905235504 | 37 | 93 | 8.0 | 17.7 | 0.00 | 0.00 | 0.00 | 37 | 1011.0 |
| 20260905235004 | 37 | 87 | 8.0 | 17.7 | 0.00 | 0.00 | 0.00 | 37 | 1010.9 |
| 20260905234504 | 37 | 88 | 8.0 | 16.1 | 0.00 | 0.00 | 0.00 | 36 | 1010.9 |
| 20260905234025 | 37 | 91 | 8.0 | 17.7 | 0.00 | 0.00 | 0.00 | 37 | 1010.9 |
| 20260905233504 | 37 | 100 | 8.0 | 27.4 | 0.00 | 0.00 | 0.00 | 36 | 1010.9 |
| 20260905233004 | 38 | 113 | 6.4 | 27.4 | 0.00 | 0.00 | 0.00 | 36 | 1010.8 |
| 20260905232504 | 38 | 136 | 6.4 | 20.9 | 0.00 | 0.00 | 0.00 | 34 | 1010.8 |
| 20260905232004 | 38 | 151 | 8.0 | 19.3 | 0.00 | 0.00 | 0.00 | 35 | 1010.8 |
| 20260905231504 | 38 | 167 | 8.0 | 19.3 | 0.00 | 0.00 | 0.00 | 34 | 1010.9 |
| 20260905231004 | 38 | 184 | 6.4 | 16.1 | 0.00 | 0.00 | 0.00 | 33 | 1010.9 |
| 20260905230525 | 38 | 189 | 6.4 | 12.9 | 0.00 | 0.00 | 0.00 | 33 | 1010.9 |
| 20260905230004 | 38 | 175 | 6.4 | 12.9 | 0.00 | 0.00 | 0.00 | 33 | 1011.0 |
| 20260905225504 | 38 | 161 | 8.0 | 22.5 | 0.00 | 0.00 | 0.00 | 33 | 1010.8 |
| 20260905225004 | 39 | 150 | 8.0 | 22.5 | 0.00 | 0.00 | 0.00 | 33 | 1010.8 |
| 20260905224504 | 39 | 135 | 8.0 | 22.5 | 0.00 | 0.00 | 0.00 | 33 | 1010.8 |
| 20260905224004 | 39 | 151 | 9.7 | 22.5 | 0.00 | 0.00 | 0.00 | 32 | 1010.8 |
| 20260905223504 | 39 | 169 | 8.0 | 16.1 | 0.00 | 0.00 | 0.00 | 32 | 1010.8 |
| 20260905223004 | 40 | 170 | 9.7 | 17.7 | 0.00 | 0.00 | 0.00 | 32 | 1010.8 |
| 20260905222504 | 40 | 164 | 8.0 | 17.7 | 0.00 | 0.00 | 0.00 | 32 | 1010.9 |
| 20260905222004 | 40 | 159 | 3.2 | 12.9 | 0.00 | 0.00 | 0.00 | 32 | 1011.0 |
| 20260905221504 | 40 | 117 | 6.4 | 16.1 | 0.00 | 0.00 | 0.00 | 31 | 1011.0 |
| 20260905221025 | 40 | 120 | 8.0 | 17.7 | 0.00 | 0.00 | 0.00 | 32 | 1011.1 |
| 20260905220504 | 40 | 108 | 6.4 | 17.7 | 0.00 | 0.00 | 0.00 | 32 | 1011.1 |
| 20260905220004 | 40 | 67 | 6.4 | 16.1 | 0.00 | 0.00 | 0.00 | 32 | 1011.2 |
| 20260905215504 | 40 | 61 | 6.4 | 16.1 | 0.00 | 0.00 | 0.00 | 33 | 1011.2 |
| 20260905215004 | 40 | 140 | 6.4 | 12.9 | 0.00 | 0.00 | 0.00 | 33 | 1011.2 |
| 20260905214525 | 40 | 158 | 9.7 | 20.9 | 0.00 | 0.00 | 0.00 | 32 | 1011.2 |
| 20260905214025 | 40 | 162 | 9.7 | 20.9 | 0.00 | 0.00 | 0.00 | 32 | 1011.2 |
| 20260905213504 | 40 | 166 | 9.7 | 19.3 | 0.00 | 0.00 | 0.00 | 32 | 1011.1 |
| 20260905213004 | 40 | 162 | 11.3 | 20.9 | 0.00 | 0.00 | 0.00 | 33 | 1011.2 |
| 20260905212525 | 40 | 177 | 8.0 | 20.9 | 0.00 | 0.00 | 0.00 | 32 | 1011.1 |
| 20260905212003 | 40 | 189 | 6.4 | 11.3 | 0.00 | 0.00 | 0.00 | 34 | 1011.3 |
| 20260905211525 | 40 | 173 | 8.0 | 17.7 | 0.00 | 0.00 | 0.00 | 33 | 1011.3 |
| 20260905211004 | 40 | 159 | 6.4 | 17.7 | 0.00 | 0.00 | 0.00 | 34 | 1011.4 |
| 20260905210504 | 39 | 135 | 8.0 | 17.7 | 0.00 | 0.00 | 0.00 | 33 | 1011.5 |
| 20260905210004 | 39 | 153 | 6.4 | 17.7 | 0.00 | 0.00 | 0.00 | 33 | 1011.6 |
| 20260905205504 | 40 | 133 | 6.4 | 17.7 | 0.00 | 0.00 | 0.00 | 33 | 1011.7 |
| 20260905205025 | 40 | 121 | 6.4 | 20.9 | 0.00 | 0.00 | 0.00 | 33 | 1011.7 |
| 20260905204503 | 40 | 135 | 9.7 | 20.9 | 0.00 | 0.00 | 0.00 | 33 | 1011.9 |
| 20260905204004 | 40 | 138 | 11.3 | 20.9 | 0.00 | 0.00 | 0.00 | 34 | 1012.0 |
| 20260905203504 | 40 | 154 | 9.7 | 20.9 | 0.00 | 0.00 | 0.00 | 34 | 1011.9 |
| 20260905203025 | 40 | 155 | 9.7 | 19.3 | 0.00 | 0.00 | 0.00 | 34 | 1012.1 |
| 20260905202504 | 40 | 153 | 8.0 | 17.7 | 0.00 | 0.00 | 0.00 | 33 | 1012.2 |
| 20260905202004 | 40 | 147 | 8.0 | 16.1 | 0.00 | 0.00 | 0.00 | 34 | 1012.4 |
| 20260905201504 | 39 | 121 | 8.0 | 19.3 | 0.00 | 0.00 | 0.00 | 34 | 1012.4 |
| 20260905201004 | 39 | 155 | 9.7 | 19.3 | 0.00 | 0.00 | 0.00 | 35 | 1012.5 |
| 20260905200504 | 39 | 195 | 9.7 | 20.9 | 0.00 | 0.00 | 0.00 | 36 | 1012.5 |
| 20260905200004 | 39 | 194 | 11.3 | 25.7 | 0.00 | 0.00 | 0.00 | 33 | 1012.7 |
| 20260905195504 | 39 | 193 | 8.0 | 25.7 | 0.00 | 0.00 | 0.00 | 34 | 1012.8 |